Location: Peebles
(55.6412°N, 3.1714°W)
Time: 02:43:21
(UTC+01:00)

FAISAT-2V - Visible Passes

Search period start: 01 July 2022 00:00
Search period end: 11 July 2022 00:00
Orbit: 934 x 993 km, 82.9° (Epoch: 30 June)

Date Brightness Start Highest point End Pass type
(mag) Time Alt. Az. Time Alt. Az. Time Alt. Az.
05 Jul 10.0 03:35:44 10° ENE 03:36:42 10° ENE 03:37:39 10° ENE visible
09 Jul 9.6 03:16:22 10° E 03:18:41 12° ENE 03:21:00 10° NE visible
10 Jul 9.3 03:35:55 10° ESE 03:39:59 19° ENE 03:44:05 10° NE visible
